Date String (YYYY-MM-DD hh:mm:ss) UTC,Instrument flags,Ambient pressure (hPa),Sample flow (lpm),Bypass flow (lpm),Sample temperature (°C),Ambient temperature (°C),ASC tube jacket temperature (°C),LED temperature (°C),Box temperature (°C),Sample RH (%),Span deviation,Mass concentration (μg/m³),Mass concentration (μg/m³),Mass concentration (μg/m³)
DateTimeUTC,F1_M11,P_M11,Q1_M11,Q2_M11,T1_M11,T2_M11,T3_M11,T4_M11,T5_M11,U1_M11,ZSPAN_M11,X0_M11,X2_M11,X1_M11
2022-05-04 12:00:00,,0822.0,5.01,0.00,24.6,23.9,00.0,33.6,26.3,25.4,-001.4,0010.91,0008.34,0008.00
2022-05-04 12:01:00,,0822.0,5.00,0.00,24.6,23.9,00.0,33.6,26.4,25.1,-001.3,0010.98,0008.36,0008.02
2022-05-04 12:02:00,,0822.0,4.99,0.00,24.6,23.9,00.0,33.6,26.4,25.0,-001.3,0011.10,0008.39,0008.02
2022-05-04 12:03:00,,0822.0,5.01,0.00,24.6,23.9,00.0,33.6,26.4,25.0,-001.2,0010.96,0008.39,0008.02
2022-05-04 12:04:00,,0822.0,4.99,0.00,24.6,23.9,00.0,33.6,26.4,25.0,-001.3,0010.92,0008.36,0008.00
2022-05-04 12:05:00,,0822.0,4.99,0.00,24.6,23.9,00.0,33.6,26.3,24.9,-001.4,0010.78,0008.27,0007.93
2022-05-04 12:06:00,,0822.1,5.02,0.00,24.6,23.9,00.0,33.6,26.4,24.8,-001.6,0010.66,0008.18,0007.87
2022-05-04 12:07:00,,0822.1,4.99,0.00,24.5,23.9,00.0,33.6,26.3,24.8,-001.8,0010.61,0008.08,0007.80
2022-05-04 12:08:00,,0822.1,5.01,0.00,24.5,23.9,00.0,33.6,26.3,24.8,-001.7,0010.49,0008.01,0007.75
2022-05-04 12:09:00,,0822.1,5.00,0.00,24.5,23.9,00.0,33.6,26.3,24.8,-001.8,0010.43,0007.93,0007.66
2022-05-04 12:10:00,,0822.1,5.00,0.00,24.5,23.9,00.0,33.5,26.4,24.8,-001.7,0010.40,0007.88,0007.60
2022-05-04 12:11:00,,0822.1,4.99,0.00,24.5,23.8,00.0,33.5,26.3,24.8,-001.9,0010.23,0007.78,0007.52
2022-05-04 12:12:00,,0822.1,5.00,0.00,24.5,23.8,00.0,33.5,26.3,24.8,-001.9,0010.13,0007.68,0007.41
2022-05-04 12:13:00,,0822.1,5.01,0.00,24.5,23.8,00.0,33.5,26.4,24.8,-001.8,0009.89,0007.55,0007.31
2022-05-04 12:14:00,,0822.1,4.99,0.00,24.5,23.8,00.0,33.5,26.3,24.8,-001.6,0009.79,0007.47,0007.23
2022-05-04 12:15:00,,0822.1,5.01,0.00,24.5,23.8,00.0,33.5,26.3,24.9,-001.7,0009.76,0007.41,0007.16
2022-05-04 12:16:00,,0822.1,4.99,0.00,24.5,23.8,00.0,33.5,26.3,24.9,-001.8,0009.71,0007.37,0007.12
2022-05-04 12:17:00,,0822.1,5.02,0.00,24.5,23.8,00.0,33.5,26.3,24.8,-001.6,0009.56,0007.26,0007.04
2022-05-04 12:18:00,,0822.2,4.98,0.00,24.5,23.8,00.0,33.5,26.3,24.8,-001.5,0009.34,0007.17,0006.97
2022-05-04 12:19:00,,0822.1,5.01,0.00,24.5,23.8,00.0,33.5,26.3,24.9,-001.6,0009.30,0007.12,0006.91
2022-05-04 12:20:00,,0822.2,4.99,0.00,24.5,23.8,00.0,33.5,26.3,24.8,-001.6,0009.26,0007.09,0006.88
2022-05-04 12:21:00,,0822.2,4.99,0.00,24.5,23.8,00.0,33.5,26.3,24.8,-001.6,0009.20,0007.05,0006.85
2022-05-04 12:22:00,,0822.2,5.01,0.00,24.5,23.7,00.0,33.5,26.3,24.8,-001.7,0009.15,0007.03,0006.84
2022-05-04 12:23:00,,0822.2,4.99,0.00,24.4,23.7,00.0,33.5,26.3,24.8,-001.9,0009.07,0006.99,0006.82
2022-05-04 12:24:00,,0822.2,5.01,0.00,24.4,23.7,00.0,33.5,26.3,24.7,-002.0,0009.03,0006.95,0006.78
2022-05-04 12:25:00,,0822.3,4.99,0.00,24.4,23.7,00.0,33.5,26.2,24.8,-002.1,0008.96,0006.90,0006.75
2022-05-04 12:26:00,,0822.3,5.01,0.00,24.4,23.7,00.0,33.5,26.2,24.8,-002.2,0008.92,0006.87,0006.73
2022-05-04 12:27:00,,0822.3,5.00,0.00,24.4,23.7,00.0,33.4,26.2,24.8,-002.3,0008.93,0006.87,0006.72
2022-05-04 12:28:00,,0822.3,5.00,0.00,24.4,23.7,00.0,33.4,26.2,24.7,-002.4,0009.07,0006.91,0006.75
2022-05-04 12:29:00,,0822.3,4.99,0.00,24.4,23.7,00.0,33.4,26.2,24.8,-002.6,0009.14,0006.96,0006.78
2022-05-04 12:30:00,,0822.3,5.01,0.00,24.4,23.7,00.0,33.4,26.1,24.8,-002.7,0009.13,0006.97,0006.80
2022-05-04 12:31:00,,0822.4,4.99,0.00,24.4,23.7,00.0,33.4,26.2,24.8,-002.5,0009.07,0006.93,0006.79
2022-05-04 12:32:00,,0822.4,5.02,0.00,24.4,23.7,00.0,33.4,26.2,24.8,-002.3,0009.08,0006.91,0006.78
2022-05-04 12:33:00,,0822.4,4.99,0.00,24.4,23.7,00.0,33.4,26.2,24.8,-002.4,0009.10,0006.91,0006.76
2022-05-04 12:34:00,,0822.3,5.00,0.00,24.3,23.6,00.0,33.4,26.2,24.8,-002.6,0009.14,0006.92,0006.75
2022-05-04 12:35:00,,0822.3,5.01,0.00,24.3,23.6,00.0,33.4,26.2,24.8,-002.8,0009.15,0006.94,0006.77
2022-05-04 12:36:00,,0822.4,4.99,0.00,24.3,23.6,00.0,33.4,26.2,24.8,-002.7,0009.16,0006.94,0006.78
2022-05-04 12:37:00,,0822.4,5.00,0.00,24.3,23.6,00.0,33.4,26.1,24.8,-002.9,0009.08,0006.90,0006.76
2022-05-04 12:38:00,,0822.5,4.99,0.00,24.3,23.6,00.0,33.4,26.1,24.8,-002.7,0008.99,0006.85,0006.72
2022-05-04 12:39:00,,0822.4,5.00,0.00,24.3,23.6,00.0,33.4,26.2,24.8,-002.5,0008.86,0006.80,0006.69
2022-05-04 12:40:00,,0822.5,5.00,0.00,24.3,23.6,00.0,33.3,26.2,24.8,-002.2,0008.85,0006.78,0006.67
2022-05-04 12:41:00,,0822.5,5.00,0.00,24.3,23.6,00.0,33.3,26.2,24.9,-002.0,0008.85,0006.77,0006.65
2022-05-04 12:42:00,,0822.5,5.01,0.00,24.3,23.6,00.0,33.3,26.1,24.8,-002.0,0008.81,0006.74,0006.62
2022-05-04 12:43:00,,0822.5,4.99,0.00,24.3,23.6,00.0,33.3,26.1,24.9,-002.3,0008.70,0006.70,0006.59
2022-05-04 12:44:00,,0822.5,5.02,0.00,24.3,23.6,00.0,33.3,26.1,25.0,-002.1,0008.66,0006.68,0006.58
2022-05-04 12:45:00,,0822.5,4.99,0.00,24.3,23.6,00.0,33.3,26.1,25.9,-001.9,0008.63,0006.66,0006.57
2022-05-04 12:46:00,,0822.5,4.99,0.00,24.3,23.6,00.0,33.3,26.1,26.5,-001.8,0008.64,0006.66,0006.56
2022-05-04 12:47:00,,0822.6,5.00,0.00,24.3,23.6,00.0,33.3,26.1,25.6,-001.8,0008.64,0006.64,0006.53
2022-05-04 12:48:00,,0822.6,5.00,0.00,24.3,23.6,00.0,33.3,26.0,25.4,-001.3,0008.67,0006.67,0006.54
2022-05-04 12:49:00,,0822.6,5.00,0.00,24.3,23.5,00.0,33.3,26.0,25.4,-001.3,0008.71,0006.69,0006.56
2022-05-04 12:50:00,,0822.7,4.99,0.00,24.3,23.5,00.0,33.3,26.0,25.4,-001.4,0008.76,0006.73,0006.59
2022-05-04 12:51:00,,0822.7,5.01,0.00,24.3,23.6,00.0,33.3,26.0,25.4,-001.7,0008.74,0006.73,0006.60
2022-05-04 12:52:00,,0822.7,4.99,0.00,24.3,23.6,00.0,33.3,26.0,25.4,-001.6,0008.78,0006.76,0006.65
2022-05-04 12:53:00,,0822.7,5.00,0.00,24.3,23.6,00.0,33.3,26.1,25.4,-001.7,0008.89,0006.85,0006.72
2022-05-04 12:54:00,,0822.7,5.00,0.00,24.3,23.6,00.0,33.3,26.1,25.3,-001.5,0009.09,0006.90,0006.75
2022-05-04 12:55:00,,0822.7,5.01,0.00,24.3,23.7,00.0,33.3,26.1,25.3,-001.8,0009.14,0006.92,0006.77
2022-05-04 12:56:00,,0822.7,5.00,0.00,24.3,23.7,00.0,33.3,26.1,25.3,-002.1,0009.15,0006.95,0006.81
2022-05-04 12:57:00,,0822.6,5.00,0.00,24.3,23.7,00.0,33.3,26.2,25.2,-002.3,0009.14,0006.97,0006.84
2022-05-04 12:58:00,,0822.7,5.01,0.00,24.3,23.7,00.0,33.3,26.2,25.1,-002.3,0009.13,0006.98,0006.87
2022-05-04 12:59:00,,0822.7,5.00,0.00,24.3,23.7,00.0,33.3,26.2,25.1,-002.5,0009.08,0006.95,0006.85
